• In France
  • List of Countries
  • For 7 days
  • Water Temperature
  • Satellite Maps
  • Weather Map
  • Weather Widgets
  • user-avatar
    Login

    Hourly Weather Tatabanya

    Today, 20 November, Monday

    Time Temperature Precipitation Wind Pressure Humidity
    00:00 0°C° 0 mm 4 mps 739 mmHg 77%
    01:00 -1°C° 0 mm 4 mps 739 mmHg 80%
    02:00 0°C° 0 mm 4 mps 739 mmHg 79%
    03:00 0°C° 0 mm 4 mps 739 mmHg 78%
    04:00 0°C° 0 mm 5 mps 739 mmHg 77%
    05:00 0°C° 0 mm 5 mps 740 mmHg 76%
    06:00 0°C° 0 mm 5 mps 740 mmHg 76%
    07:00 0°C° 0 mm 5 mps 740 mmHg 75%
    08:00 +2°C° 0 mm 6 mps 741 mmHg 71%
    09:00 +3°C° 0 mm 7 mps 741 mmHg 67%
    10:00 +4°C° 0 mm 8 mps 741 mmHg 62%
    11:00 +4°C° 0 mm 8 mps 741 mmHg 60%
    12:00 +4°C° 0 mm 7 mps 742 mmHg 58%
    13:00 +5°C° 0 mm 7 mps 742 mmHg 56%
    14:00 +4°C° 0 mm 6 mps 741 mmHg 59%
    15:00 +5°C° 0 mm 5 mps 741 mmHg 62%
    16:00 +4°C° 0 mm 4 mps 741 mmHg 65%
    17:00 +4°C° 0 mm 4 mps 741 mmHg 67%
    18:00 +3°C° 0 mm 4 mps 742 mmHg 69%
    19:00 +3°C° 0 mm 4 mps 742 mmHg 71%
    20:00 +3°C° 0 mm 4 mps 742 mmHg 71%
    21:00 +1°C° 0 mm 4 mps 742 mmHg 72%
    22:00 +1°C° 0 mm 4 mps 742 mmHg 72%
    23:00 +1°C° 0.1 mm 4 mps 742 mmHg 73%

    Tomorrow, 21 November, Tuesday

    Time Temperature Precipitation Wind Pressure Humidity
    00:00 +2°C° 0.1 mm 3 mps 742 mmHg 75%
    01:00 +2°C° 0.1 mm 3 mps 742 mmHg 76%
    02:00 +3°C° 0.2 mm 2 mps 741 mmHg 77%
    03:00 +3°C° 0.2 mm 2 mps 741 mmHg 77%
    04:00 +3°C° 0.2 mm 2 mps 740 mmHg 78%
    05:00 +3°C° 0.2 mm 2 mps 740 mmHg 78%
    06:00 +3°C° 0.2 mm 2 mps 740 mmHg 78%
    07:00 +3°C° 0.2 mm 2 mps 740 mmHg 78%
    08:00 +3°C° 0.1 mm 2 mps 740 mmHg 77%
    09:00 +4°C° 0.1 mm 2 mps 740 mmHg 76%
    10:00 +3°C° 0.1 mm 3 mps 740 mmHg 76%
    11:00 +3°C° 0.6 mm 3 mps 740 mmHg 77%
    12:00 +3°C° 0.6 mm 3 mps 739 mmHg 78%
    13:00 +3°C° 0.6 mm 3 mps 739 mmHg 80%
    14:00 +4°C° 0.4 mm 3 mps 739 mmHg 80%
    15:00 +4°C° 0.4 mm 3 mps 739 mmHg 81%
    16:00 +4°C° 0.4 mm 3 mps 739 mmHg 82%
    17:00 +5°C° 0.1 mm 3 mps 739 mmHg 83%
    18:00 +5°C° 0.1 mm 3 mps 740 mmHg 84%
    19:00 +7°C° 0.1 mm 3 mps 740 mmHg 84%
    20:00 +5°C° 0 mm 3 mps 740 mmHg 84%
    21:00 +5°C° 0 mm 3 mps 740 mmHg 85%
    22:00 +5°C° 0 mm 3 mps 740 mmHg 85%
    23:00 +5°C° 0.1 mm 3 mps 740 mmHg 85%

    Day after tomorrow, 22 November, Wednesday

    Time Temperature Precipitation Wind Pressure Humidity
    00:00 +7°C° 0.1 mm 3 mps 740 mmHg 85%
    01:00 +7°C° 0.1 mm 3 mps 740 mmHg 85%
    02:00 +7°C° 0.2 mm 3 mps 740 mmHg 86%
    03:00 +7°C° 0.2 mm 3 mps 740 mmHg 86%
    04:00 +6°C° 0.2 mm 2 mps 740 mmHg 87%
    05:00 +6°C° 0 mm 2 mps 740 mmHg 87%
    06:00 +6°C° 0 mm 2 mps 740 mmHg 87%
    07:00 +5°C° 0 mm 2 mps 741 mmHg 87%
    08:00 +6°C° 0 mm 2 mps 741 mmHg 81%
    09:00 +7°C° 0 mm 2 mps 741 mmHg 76%
    10:00 +9°C° 0 mm 2 mps 741 mmHg 70%
    11:00 +10°C° 0 mm 2 mps 741 mmHg 68%
    12:00 +10°C° 0 mm 2 mps 741 mmHg 65%
    13:00 +12°C° 0 mm 2 mps 741 mmHg 62%
    14:00 +10°C° 0 mm 2 mps 741 mmHg 67%
    15:00 +9°C° 0 mm 2 mps 741 mmHg 72%
    16:00 +9°C° 0 mm 1 mps 741 mmHg 77%
    17:00 +9°C° 0 mm 1 mps 741 mmHg 80%
    18:00 +8°C° 0 mm 1 mps 741 mmHg 83%
    19:00 +8°C° 0 mm 1 mps 741 mmHg 85%
    20:00 +8°C° 0 mm 1 mps 741 mmHg 86%
    21:00 +7°C° 0 mm 1 mps 741 mmHg 87%
    22:00 +7°C° 0 mm 1 mps 741 mmHg 88%
    23:00 +7°C° 0 mm 1 mps 741 mmHg 88%

    23 November, Thursday

    Time Temperature Precipitation Wind Pressure Humidity
    00:00 +7°C° 0 mm 1 mps 741 mmHg 89%
    01:00 +7°C° 0 mm 1 mps 741 mmHg 90%
    02:00 +6°C° 0 mm 1 mps 741 mmHg 90%
    03:00 +6°C° 0 mm 1 mps 741 mmHg 91%
    04:00 +5°C° 0 mm 2 mps 741 mmHg 92%
    05:00 +5°C° 0 mm 2 mps 741 mmHg 92%
    06:00 +4°C° 0 mm 2 mps 741 mmHg 93%
    07:00 +4°C° 0 mm 2 mps 742 mmHg 93%
    08:00 +5°C° 0 mm 2 mps 742 mmHg 90%
    09:00 +6°C° 0 mm 2 mps 742 mmHg 87%
    10:00 +8°C° 0 mm 2 mps 743 mmHg 84%
    11:00 +8°C° 0 mm 2 mps 743 mmHg 81%
    12:00 +9°C° 0 mm 2 mps 743 mmHg 78%
    13:00 +10°C° 0 mm 2 mps 743 mmHg 75%
    14:00 +9°C° 0 mm 2 mps 744 mmHg 79%
    15:00 +9°C° 0 mm 1 mps 744 mmHg 83%
    16:00 +9°C° 0 mm 1 mps 744 mmHg 87%
    17:00 +8°C° 0 mm 1 mps 744 mmHg 88%
    18:00 +8°C° 0 mm 1 mps 745 mmHg 90%
    19:00 +7°C° 0 mm 1 mps 745 mmHg 91%
    20:00 +7°C° 0 mm 1 mps 745 mmHg 92%
    21:00 +7°C° 0 mm 1 mps 745 mmHg 93%
    22:00 +6°C° 0 mm 1 mps 746 mmHg 93%
    23:00 +6°C° 0 mm 1 mps 746 mmHg 93%

    24 November, Friday

    Time Temperature Precipitation Wind Pressure Humidity
    00:00 +6°C° 0 mm 1 mps 746 mmHg 94%
    01:00 +6°C° 0 mm 1 mps 746 mmHg 94%
    02:00 +6°C° 0 mm 1 mps 746 mmHg 94%
    03:00 +5°C° 0 mm 1 mps 746 mmHg 94%
    04:00 +5°C° 0 mm 1 mps 746 mmHg 94%
    05:00 +5°C° 0 mm 1 mps 746 mmHg 94%
    06:00 +5°C° 0 mm 1 mps 746 mmHg 94%
    07:00 +5°C° 0 mm 1 mps 746 mmHg 94%
    08:00 +6°C° 0 mm 1 mps 747 mmHg 91%
    09:00 +7°C° 0 mm 1 mps 747 mmHg 87%
    10:00 +8°C° 0 mm 1 mps 747 mmHg 84%
    11:00 +9°C° 0 mm 1 mps 747 mmHg 80%
    12:00 +10°C° 0 mm 1 mps 747 mmHg 77%
    13:00 +11°C° 0 mm 1 mps 747 mmHg 73%
    14:00 +10°C° 0 mm 1 mps 746 mmHg 78%
    15:00 +9°C° 0 mm 2 mps 746 mmHg 82%
    16:00 +8°C° 0 mm 2 mps 746 mmHg 86%
    17:00 +7°C° 0 mm 2 mps 746 mmHg 88%
    18:00 +7°C° 0 mm 2 mps 747 mmHg 90%
    19:00 +6°C° 0 mm 2 mps 747 mmHg 91%
    20:00 +6°C° 0 mm 2 mps 747 mmHg 92%
    21:00 +6°C° 0 mm 2 mps 747 mmHg 92%
    22:00 +6°C° 0 mm 2 mps 747 mmHg 92%
    23:00 +6°C° 0 mm 2 mps 747 mmHg 93%

    25 November, Saturday

    Time Temperature Precipitation Wind Pressure Humidity
    00:00 +5°C° 0 mm 2 mps 747 mmHg 93%
    01:00 +5°C° 0 mm 2 mps 747 mmHg 93%
    02:00 +5°C° 0 mm 2 mps 747 mmHg 93%
    03:00 +5°C° 0 mm 2 mps 747 mmHg 94%
    04:00 +5°C° 0 mm 2 mps 746 mmHg 94%
    05:00 +4°C° 0 mm 2 mps 746 mmHg 93%
    06:00 +3°C° 0 mm 3 mps 746 mmHg 93%
    07:00 +3°C° 0 mm 3 mps 746 mmHg 93%
    08:00 +4°C° 0 mm 3 mps 746 mmHg 88%
    09:00 +5°C° 0 mm 3 mps 746 mmHg 83%
    10:00 +6°C° 0 mm 4 mps 746 mmHg 78%
    11:00 +7°C° 0 mm 4 mps 746 mmHg 76%
    12:00 +8°C° 0 mm 4 mps 745 mmHg 73%
    13:00 +8°C° 0 mm 4 mps 745 mmHg 71%
    14:00 +8°C° 0 mm 4 mps 745 mmHg 75%
    15:00 +8°C° 0 mm 3 mps 744 mmHg 79%
    16:00 +7°C° 0 mm 3 mps 744 mmHg 82%
    17:00 +7°C° 0 mm 3 mps 744 mmHg 84%
    18:00 +7°C° 0 mm 3 mps 744 mmHg 86%
    19:00 +5°C° 0 mm 3 mps 744 mmHg 88%
    20:00 +6°C° 0 mm 2 mps 744 mmHg 88%
    21:00 +6°C° 0 mm 2 mps 744 mmHg 88%
    22:00 +6°C° 0 mm 2 mps 744 mmHg 89%
    23:00 +6°C° 0 mm 2 mps 744 mmHg 90%
    Show more